owner,sensor,date,latitude,longitude,vertical_datum,direction_of_sea_water_velocity,sea_water_speed,upward_sea_water_velocity,qcFlag 
TABS,ioos:station:wmo:42050:1,2004-01-01T00:00:00Z,28.8425,-94.2433,2.0,259.9609499,31.38042224,-99999.0,'11111222,11111222,99999999' 
TABS,ioos:station:wmo:42050:1,2004-01-01T00:30:00Z,28.8425,-94.2433,2.0,264.8087313,29.0692174,-99999.0,'11111222,11111222,99999999' 
TABS,ioos:station:wmo:42050:1,2004-01-01T01:00:00Z,28.8425,-94.2433,2.0,264.565384,26.60959413,-99999.0,'11111222,11111222,99999999' 
TABS,ioos:station:wmo:42050:1,2004-01-01T01:30:00Z,28.8425,-94.2433,2.0,264.2147849,26.88692247,-99999.0,'11111222,11111222,99999999' 
TABS,ioos:station:wmo:42050:1,2004-01-01T02:00:00Z,28.8425,-94.2433,2.0,264.316478,22.82217562,-99999.0,'11111222,11111222,99999999' 
TABS,ioos:station:wmo:42050:1,2004-01-01T02:30:00Z,28.8425,-94.2433,2.0,257.9191258,25.22869993,-99999.0,'11111222,11111222,99999999' 
TABS,ioos:station:wmo:42050:1,2004-01-01T03:00:00Z,28.8425,-94.2433,2.0,243.7127783,22.10602859,-99999.0,'11111222,11111222,99999999' 
TABS,ioos:station:wmo:42050:1,2004-01-01T03:30:00Z,28.8425,-94.2433,2.0,228.507969,20.79963461,-99999.0,'11111222,11111222,99999999' 
TABS,ioos:station:wmo:42050:1,2004-01-01T04:00:00Z,28.8425,-94.2433,2.0,226.1465723,21.54986079,-99999.0,'11111222,11111222,99999999' 
TABS,ioos:station:wmo:42050:1,2004-01-01T04:30:00Z,28.8425,-94.2433,2.0,228.9109572,23.84260472,-99999.0,'11111222,11111222,99999999' 
TABS,ioos:station:wmo:42050:1,2004-01-01T05:00:00Z,28.8425,-94.2433,2.0,225.5348717,28.00972153,-99999.0,'11111222,11111222,99999999' 
TABS,ioos:station:wmo:42050:1,2004-01-01T05:30:00Z,28.8425,-94.2433,2.0,223.6924548,27.89555162,-99999.0,'11111222,11111222,99999999' 
TABS,ioos:station:wmo:42050:1,2004-01-01T06:00:00Z,28.8425,-94.2433,2.0,218.0125046,28.07558548,-99999.0,'11111222,11111222,99999999' 
TABS,ioos:station:wmo:42050:1,2004-01-01T06:30:00Z,28.8425,-94.2433,2.0,219.4815804,30.36955219,-99999.0,'11111222,11111222,99999999' 
TABS,ioos:station:wmo:42050:1,2004-01-01T07:00:00Z,28.8425,-94.2433,2.0,221.69049,30.74677381,-99999.0,'11111222,11111222,99999999' 
TABS,ioos:station:wmo:42050:1,2004-01-01T07:30:00Z,28.8425,-94.2433,2.0,221.5585378,34.3991279,-99999.0,'11111222,11111222,99999999' 
TABS,ioos:station:wmo:42050:1,2004-01-01T08:00:00Z,28.8425,-94.2433,2.0,222.8361629,37.46093699,-99999.0,'11111222,11111222,99999999' 
TABS,ioos:station:wmo:42050:1,2004-01-01T08:30:00Z,28.8425,-94.2433,2.0,220.3242008,38.16935944,-99999.0,'11111222,11111222,99999999' 
TABS,ioos:station:wmo:42050:1,2004-01-01T09:00:00Z,28.8425,-94.2433,2.0,223.4951737,40.12800145,-99999.0,'11111222,11111222,99999999' 
TABS,ioos:station:wmo:42050:1,2004-01-01T09:30:00Z,28.8425,-94.2433,2.0,224.9482797,39.40707678,-99999.0,'11111222,11111222,99999999' 
TABS,ioos:station:wmo:42050:1,2004-01-01T10:00:00Z,28.8425,-94.2433,2.0,224.1052804,41.22227674,-99999.0,'11111222,11111222,99999999' 
TABS,ioos:station:wmo:42050:1,2004-01-01T10:30:00Z,28.8425,-94.2433,2.0,220.7786567,40.92521228,-99999.0,'11111222,11111222,99999999' 
TABS,ioos:station:wmo:42050:1,2004-01-01T11:00:00Z,28.8425,-94.2433,2.0,221.0626505,35.942205,-99999.0,'11111222,11111222,99999999' 
TABS,ioos:station:wmo:42050:1,2004-01-01T11:30:00Z,28.8425,-94.2433,2.0,223.1147427,35.68577588,-99999.0,'11111222,11111222,99999999' 
TABS,ioos:station:wmo:42050:1,2004-01-01T12:00:00Z,28.8425,-94.2433,2.0,221.141745,35.62699117,-99999.0,'11111222,11111222,99999999' 
TABS,ioos:station:wmo:42050:1,2004-01-01T12:30:00Z,28.8425,-94.2433,2.0,220.1242873,33.11341118,-99999.0,'11111222,11111222,99999999' 
TABS,ioos:station:wmo:42050:1,2004-01-01T13:00:00Z,28.8425,-94.2433,2.0,223.1247565,31.55385555,-99999.0,'11111222,11111222,99999999' 
TABS,ioos:station:wmo:42050:1,2004-01-01T13:30:00Z,28.8425,-94.2433,2.0,223.0577392,29.63064967,-99999.0,'11111222,11111222,99999999' 
TABS,ioos:station:wmo:42050:1,2004-01-01T14:00:00Z,28.8425,-94.2433,2.0,219.1250322,28.25588965,-99999.0,'11111222,11111222,99999999' 
TABS,ioos:station:wmo:42050:1,2004-01-01T14:30:00Z,28.8425,-94.2433,2.0,219.2905776,27.36642651,-99999.0,'11111222,11111222,99999999' 
TABS,ioos:station:wmo:42050:1,2004-01-01T15:00:00Z,28.8425,-94.2433,2.0,220.2181417,26.29689716,-99999.0,'11111222,11111222,99999999' 
TABS,ioos:station:wmo:42050:1,2004-01-01T15:30:00Z,28.8425,-94.2433,2.0,215.7886793,23.32415057,-99999.0,'11111222,11111222,99999999' 
TABS,ioos:station:wmo:42050:1,2004-01-01T16:00:00Z,28.8425,-94.2433,2.0,214.7676876,23.88407,-99999.0,'11111222,11111222,99999999' 
TABS,ioos:station:wmo:42050:1,2004-01-01T16:30:00Z,28.8425,-94.2433,2.0,215.0713466,23.5816136,-99999.0,'11111222,11111222,99999999' 
TABS,ioos:station:wmo:42050:1,2004-01-01T17:00:00Z,28.8425,-94.2433,2.0,212.5231183,23.56577603,-99999.0,'11111222,11111222,99999999' 
TABS,ioos:station:wmo:42050:1,2004-01-01T17:30:00Z,28.8425,-94.2433,2.0,209.9047788,22.18369897,-99999.0,'11111222,11111222,99999999' 
TABS,ioos:station:wmo:42050:1,2004-01-01T18:00:00Z,28.8425,-94.2433,2.0,208.4426517,21.01690986,-99999.0,'11111222,11111222,99999999' 
TABS,ioos:station:wmo:42050:1,2004-01-01T18:30:00Z,28.8425,-94.2433,2.0,205.1995545,23.46301345,-99999.0,'11111222,11111222,99999999' 
TABS,ioos:station:wmo:42050:1,2004-01-01T19:00:00Z,28.8425,-94.2433,2.0,195.6785145,25.38450709,-99999.0,'11111222,11111222,99999999' 
TABS,ioos:station:wmo:42050:1,2004-01-01T19:30:00Z,28.8425,-94.2433,2.0,195.0125654,26.75314,-99999.0,'11111222,11111222,99999999' 
TABS,ioos:station:wmo:42050:1,2004-01-01T20:00:00Z,28.8425,-94.2433,2.0,191.1149348,28.27030421,-99999.0,'11111222,11111222,99999999' 
TABS,ioos:station:wmo:42050:1,2004-01-01T20:30:00Z,28.8425,-94.2433,2.0,196.3536147,24.47003269,-99999.0,'11111222,11111222,99999999' 
TABS,ioos:station:wmo:42050:1,2004-01-01T21:00:00Z,28.8425,-94.2433,2.0,198.1802616,22.7875975,-99999.0,'11111222,11111222,99999999' 
TABS,ioos:station:wmo:42050:1,2004-01-01T21:30:00Z,28.8425,-94.2433,2.0,194.6926099,26.45509781,-99999.0,'11111222,11111222,99999999' 
TABS,ioos:station:wmo:42050:1,2004-01-01T22:00:00Z,28.8425,-94.2433,2.0,192.4910813,23.20939465,-99999.0,'11111222,11111222,99999999' 
TABS,ioos:station:wmo:42050:1,2004-01-01T22:30:00Z,28.8425,-94.2433,2.0,194.5374333,19.12224098,-99999.0,'11111222,11111222,99999999' 
TABS,ioos:station:wmo:42050:1,2004-01-01T23:00:00Z,28.8425,-94.2433,2.0,196.7452452,18.98508098,-99999.0,'11111222,11111222,99999999' 
TABS,ioos:station:wmo:42050:1,2004-01-01T23:30:00Z,28.8425,-94.2433,2.0,189.2056999,18.00186935,-99999.0,'11111222,11111222,99999999' 
TABS,ioos:station:wmo:42050:1,2004-01-02T00:00:00Z,28.8425,-94.2433,2.0,185.1973815,16.3371754,-99999.0,'11111222,11111222,99999999' 
TABS,ioos:station:wmo:42050:1,2004-01-02T00:30:00Z,28.8425,-94.2433,2.0,175.9601937,21.29290023,-99999.0,'11111222,11111222,99999999' 
TABS,ioos:station:wmo:42050:1,2004-01-02T01:00:00Z,28.8425,-94.2433,2.0,169.6632596,27.47591309,-99999.0,'11111222,11111222,99999999' 
TABS,ioos:station:wmo:42050:1,2004-01-02T01:30:00Z,28.8425,-94.2433,2.0,165.4716019,19.77223306,-99999.0,'11111222,11111222,99999999' 
TABS,ioos:station:wmo:42050:1,2004-01-02T02:00:00Z,28.8425,-94.2433,2.0,172.7723059,20.10978369,-99999.0,'11111222,11111222,99999999' 
TABS,ioos:station:wmo:42050:1,2004-01-02T02:30:00Z,28.8425,-94.2433,2.0,174.6293089,19.44535934,-99999.0,'11111222,11111222,99999999' 
TABS,ioos:station:wmo:42050:1,2004-01-02T03:00:00Z,28.8425,-94.2433,2.0,172.0422829,16.90275717,-99999.0,'11111222,11111222,99999999' 
TABS,ioos:station:wmo:42050:1,2004-01-02T03:30:00Z,28.8425,-94.2433,2.0,181.0906682,16.28295121,-99999.0,'11111222,11111222,99999999' 
TABS,ioos:station:wmo:42050:1,2004-01-02T04:00:00Z,28.8425,-94.2433,2.0,181.4739844,16.32540352,-99999.0,'11111222,11111222,99999999' 
TABS,ioos:station:wmo:42050:1,2004-01-02T04:30:00Z,28.8425,-94.2433,2.0,196.7627313,15.49859671,-99999.0,'11111222,11111222,99999999' 
TABS,ioos:station:wmo:42050:1,2004-01-02T05:00:00Z,28.8425,-94.2433,2.0,206.9461789,12.09292355,-99999.0,'11111222,11111222,99999999' 
TABS,ioos:station:wmo:42050:1,2004-01-02T05:30:00Z,28.8425,-94.2433,2.0,197.8023187,14.32599037,-99999.0,'11111222,11111222,99999999' 
TABS,ioos:station:wmo:42050:1,2004-01-02T06:00:00Z,28.8425,-94.2433,2.0,184.4923605,15.44746257,-99999.0,'11111222,11111222,99999999' 
TABS,ioos:station:wmo:42050:1,2004-01-02T06:30:00Z,28.8425,-94.2433,2.0,190.7047866,16.90419179,-99999.0,'11111222,11111222,99999999' 
TABS,ioos:station:wmo:42050:1,2004-01-02T07:00:00Z,28.8425,-94.2433,2.0,179.4409688,19.48092657,-99999.0,'11111222,11111222,99999999' 
TABS,ioos:station:wmo:42050:1,2004-01-02T07:30:00Z,28.8425,-94.2433,2.0,187.703761,23.19940085,-99999.0,'11111222,11111222,99999999' 
TABS,ioos:station:wmo:42050:1,2004-01-02T08:00:00Z,28.8425,-94.2433,2.0,197.8654411,27.05462068,-99999.0,'11111222,11111222,99999999' 
TABS,ioos:station:wmo:42050:1,2004-01-02T08:30:00Z,28.8425,-94.2433,2.0,203.3013799,29.93134979,-99999.0,'11111222,11111222,99999999' 
TABS,ioos:station:wmo:42050:1,2004-01-02T09:00:00Z,28.8425,-94.2433,2.0,198.9489191,30.30216494,-99999.0,'11111222,11111222,99999999' 
TABS,ioos:station:wmo:42050:1,2004-01-02T09:30:00Z,28.8425,-94.2433,2.0,197.8747798,28.80023785,-99999.0,'11111222,11111222,99999999' 
TABS,ioos:station:wmo:42050:1,2004-01-02T10:00:00Z,28.8425,-94.2433,2.0,197.8738102,30.36564506,-99999.0,'11111222,11111222,99999999' 
TABS,ioos:station:wmo:42050:1,2004-01-02T10:30:00Z,28.8425,-94.2433,2.0,198.5726963,28.88432793,-99999.0,'11111222,11111222,99999999' 
TABS,ioos:station:wmo:42050:1,2004-01-02T11:00:00Z,28.8425,-94.2433,2.0,193.2749723,26.47752443,-99999.0,'11111222,11111222,99999999' 
TABS,ioos:station:wmo:42050:1,2004-01-02T11:30:00Z,28.8425,-94.2433,2.0,192.9738619,18.84097927,-99999.0,'11111222,11111222,99999999' 
TABS,ioos:station:wmo:42050:1,2004-01-02T12:00:00Z,28.8425,-94.2433,2.0,177.6149919,20.90810847,-99999.0,'11111222,11111222,99999999' 
TABS,ioos:station:wmo:42050:1,2004-01-02T12:30:00Z,28.8425,-94.2433,2.0,172.7889454,19.04059348,-99999.0,'11111222,11111222,99999999' 
TABS,ioos:station:wmo:42050:1,2004-01-02T13:00:00Z,28.8425,-94.2433,2.0,169.7933417,13.54433092,-99999.0,'11111222,11111222,99999999' 
TABS,ioos:station:wmo:42050:1,2004-01-02T13:30:00Z,28.8425,-94.2433,2.0,164.847226,15.68533073,-99999.0,'11111222,11111222,99999999' 
TABS,ioos:station:wmo:42050:1,2004-01-02T14:00:00Z,28.8425,-94.2433,2.0,180.9244062,16.11209794,-99999.0,'11111222,11111222,99999999' 
TABS,ioos:station:wmo:42050:1,2004-01-02T14:30:00Z,28.8425,-94.2433,2.0,175.0995075,13.57963549,-99999.0,'11111222,11111222,99999999' 
TABS,ioos:station:wmo:42050:1,2004-01-02T15:00:00Z,28.8425,-94.2433,2.0,177.1302291,11.98502816,-99999.0,'11111222,11111222,99999999' 
TABS,ioos:station:wmo:42050:1,2004-01-02T15:30:00Z,28.8425,-94.2433,2.0,172.2412145,7.851878756,-99999.0,'11133222,11111222,99999999' 
TABS,ioos:station:wmo:42050:1,2004-01-02T16:00:00Z,28.8425,-94.2433,2.0,166.7439481,4.273874121,-99999.0,'11133222,11111222,99999999' 
TABS,ioos:station:wmo:42050:1,2004-01-02T16:30:00Z,28.8425,-94.2433,2.0,155.3591292,5.060839851,-99999.0,'11133222,11111222,99999999' 
TABS,ioos:station:wmo:42050:1,2004-01-02T17:00:00Z,28.8425,-94.2433,2.0,82.27401908,4.611865132,-99999.0,'11133222,11111222,99999999' 
TABS,ioos:station:wmo:42050:1,2004-01-02T17:30:00Z,28.8425,-94.2433,2.0,110.4183778,7.309240727,-99999.0,'11133222,11111222,99999999' 
TABS,ioos:station:wmo:42050:1,2004-01-02T18:00:00Z,28.8425,-94.2433,2.0,128.7240588,8.344369359,-99999.0,'11133222,11111222,99999999' 
TABS,ioos:station:wmo:42050:1,2004-01-02T18:30:00Z,28.8425,-94.2433,2.0,136.6104727,11.57283889,-99999.0,'11111222,11111222,99999999' 
TABS,ioos:station:wmo:42050:1,2004-01-02T19:00:00Z,28.8425,-94.2433,2.0,133.7108314,15.71589005,-99999.0,'11111222,11111222,99999999' 
TABS,ioos:station:wmo:42050:1,2004-01-02T19:30:00Z,28.8425,-94.2433,2.0,142.4507526,19.73938702,-99999.0,'11111222,11111222,99999999' 
TABS,ioos:station:wmo:42050:1,2004-01-02T20:00:00Z,28.8425,-94.2433,2.0,139.2890381,22.12369318,-99999.0,'11111222,11111222,99999999' 
TABS,ioos:station:wmo:42050:1,2004-01-02T20:30:00Z,28.8425,-94.2433,2.0,148.1686564,22.31623848,-99999.0,'11111222,11111222,99999999' 
TABS,ioos:station:wmo:42050:1,2004-01-02T21:00:00Z,28.8425,-94.2433,2.0,153.4548025,25.62086845,-99999.0,'11111222,11111222,99999999' 
TABS,ioos:station:wmo:42050:1,2004-01-02T21:30:00Z,28.8425,-94.2433,2.0,151.4812334,21.90831121,-99999.0,'11111222,11111222,99999999' 
TABS,ioos:station:wmo:42050:1,2004-01-02T22:00:00Z,28.8425,-94.2433,2.0,153.9702582,24.88405112,-99999.0,'11111222,11111222,99999999' 
TABS,ioos:station:wmo:42050:1,2004-01-02T22:30:00Z,28.8425,-94.2433,2.0,154.3253347,21.58066264,-99999.0,'11111222,11111222,99999999' 
TABS,ioos:station:wmo:42050:1,2004-01-02T23:00:00Z,28.8425,-94.2433,2.0,154.0069526,22.84033713,-99999.0,'11111222,11111222,99999999' 
TABS,ioos:station:wmo:42050:1,2004-01-02T23:30:00Z,28.8425,-94.2433,2.0,155.601902,21.64272857,-99999.0,'11111222,11111222,99999999' 
TABS,ioos:station:wmo:42050:1,2004-01-03T00:00:00Z,28.8425,-94.2433,2.0,155.0409142,20.902031,-99999.0,'11111222,11111222,99999999' 
TABS,ioos:station:wmo:42050:1,2004-01-03T00:30:00Z,28.8425,-94.2433,2.0,154.2509607,19.15162917,-99999.0,'11111222,11111222,99999999' 
TABS,ioos:station:wmo:42050:1,2004-01-03T01:00:00Z,28.8425,-94.2433,2.0,158.371442,18.44891596,-99999.0,'11111222,11111222,99999999' 
TABS,ioos:station:wmo:42050:1,2004-01-03T01:30:00Z,28.8425,-94.2433,2.0,152.0793656,17.96065144,-99999.0,'11111222,11111222,99999999' 
TABS,ioos:station:wmo:42050:1,2004-01-03T02:00:00Z,28.8425,-94.2433,2.0,155.7022982,16.84183482,-99999.0,'11111222,11111222,99999999' 
TABS,ioos:station:wmo:42050:1,2004-01-03T02:30:00Z,28.8425,-94.2433,2.0,156.1916907,13.94684552,-99999.0,'11111222,11111222,99999999' 
TABS,ioos:station:wmo:42050:1,2004-01-03T03:00:00Z,28.8425,-94.2433,2.0,173.1590548,11.25008889,-99999.0,'11111222,11111222,99999999' 
TABS,ioos:station:wmo:42050:1,2004-01-03T03:30:00Z,28.8425,-94.2433,2.0,172.1124497,10.34789351,-99999.0,'11111222,11111222,99999999' 
TABS,ioos:station:wmo:42050:1,2004-01-03T04:00:00Z,28.8425,-94.2433,2.0,183.6030698,7.955727497,-99999.0,'11133222,11111222,99999999' 
TABS,ioos:station:wmo:42050:1,2004-01-03T04:30:00Z,28.8425,-94.2433,2.0,195.237145,5.669303308,-99999.0,'11133222,11111222,99999999' 
TABS,ioos:station:wmo:42050:1,2004-01-03T05:00:00Z,28.8425,-94.2433,2.0,217.5791083,6.460495337,-99999.0,'11133222,11111222,99999999' 
TABS,ioos:station:wmo:42050:1,2004-01-03T05:30:00Z,28.8425,-94.2433,2.0,194.6931686,4.652139293,-99999.0,'11133222,11111222,99999999' 
TABS,ioos:station:wmo:42050:1,2004-01-03T06:00:00Z,28.8425,-94.2433,2.0,196.0500131,6.004040306,-99999.0,'11133222,11111222,99999999' 
TABS,ioos:station:wmo:42050:1,2004-01-03T06:30:00Z,28.8425,-94.2433,2.0,219.1762347,5.714630347,-99999.0,'11133222,11111222,99999999' 
TABS,ioos:station:wmo:42050:1,2004-01-03T07:00:00Z,28.8425,-94.2433,2.0,165.1063514,0.972676719,-99999.0,'11133222,11111222,99999999' 
TABS,ioos:station:wmo:42050:1,2004-01-03T07:30:00Z,28.8425,-94.2433,2.0,247.5884334,4.013103537,-99999.0,'11133222,11111222,99999999' 
TABS,ioos:station:wmo:42050:1,2004-01-03T08:00:00Z,28.8425,-94.2433,2.0,239.1609696,8.641834296,-99999.0,'11133222,11111222,99999999' 
TABS,ioos:station:wmo:42050:1,2004-01-03T08:30:00Z,28.8425,-94.2433,2.0,238.8146773,9.772062218,-99999.0,'11133222,11111222,99999999' 
TABS,ioos:station:wmo:42050:1,2004-01-03T09:00:00Z,28.8425,-94.2433,2.0,268.2201577,17.06823072,-99999.0,'11111222,11111222,99999999' 
TABS,ioos:station:wmo:42050:1,2004-01-03T09:30:00Z,28.8425,-94.2433,2.0,276.7459848,18.72965563,-99999.0,'11111222,11111222,99999999' 
TABS,ioos:station:wmo:42050:1,2004-01-03T10:00:00Z,28.8425,-94.2433,2.0,287.5231096,20.26011846,-99999.0,'11111222,11111222,99999999' 
TABS,ioos:station:wmo:42050:1,2004-01-03T10:30:00Z,28.8425,-94.2433,2.0,288.3121482,20.59279971,-99999.0,'11111222,11111222,99999999' 
TABS,ioos:station:wmo:42050:1,2004-01-03T11:00:00Z,28.8425,-94.2433,2.0,298.425005,20.67215519,-99999.0,'11111222,11111222,99999999' 
TABS,ioos:station:wmo:42050:1,2004-01-03T11:30:00Z,28.8425,-94.2433,2.0,309.3937511,24.02930294,-99999.0,'11111222,11111222,99999999' 
TABS,ioos:station:wmo:42050:1,2004-01-03T12:00:00Z,28.8425,-94.2433,2.0,313.7632519,26.52975876,-99999.0,'11111222,11111222,99999999' 
TABS,ioos:station:wmo:42050:1,2004-01-03T12:30:00Z,28.8425,-94.2433,2.0,317.0357502,30.46016579,-99999.0,'11111222,11111222,99999999' 
TABS,ioos:station:wmo:42050:1,2004-01-03T13:00:00Z,28.8425,-94.2433,2.0,318.5411517,29.19560412,-99999.0,'11111222,11111222,99999999' 
TABS,ioos:station:wmo:42050:1,2004-01-03T13:30:00Z,28.8425,-94.2433,2.0,331.2412431,32.0081802,-99999.0,'11111222,11111222,99999999' 
TABS,ioos:station:wmo:42050:1,2004-01-03T14:00:00Z,28.8425,-94.2433,2.0,327.4262295,33.32161461,-99999.0,'11111222,11111222,99999999' 
TABS,ioos:station:wmo:42050:1,2004-01-03T14:30:00Z,28.8425,-94.2433,2.0,329.8697952,33.72704849,-99999.0,'11111222,11111222,99999999' 
TABS,ioos:station:wmo:42050:1,2004-01-03T15:00:00Z,28.8425,-94.2433,2.0,332.5247484,37.15025168,-99999.0,'11111222,11111222,99999999' 
TABS,ioos:station:wmo:42050:1,2004-01-03T15:30:00Z,28.8425,-94.2433,2.0,328.3336974,36.21122064,-99999.0,'11111222,11111222,99999999' 
TABS,ioos:station:wmo:42050:1,2004-01-03T16:00:00Z,28.8425,-94.2433,2.0,324.0683067,36.65491099,-99999.0,'11111222,11111222,99999999' 
TABS,ioos:station:wmo:42050:1,2004-01-03T16:30:00Z,28.8425,-94.2433,2.0,330.1165029,35.30411024,-99999.0,'11111222,11111222,99999999' 
TABS,ioos:station:wmo:42050:1,2004-01-03T17:00:00Z,28.8425,-94.2433,2.0,329.3263838,34.57798722,-99999.0,'11111222,11111222,99999999' 
TABS,ioos:station:wmo:42050:1,2004-01-03T17:30:00Z,28.8425,-94.2433,2.0,334.0313926,33.52494594,-99999.0,'11111222,11111222,99999999' 
TABS,ioos:station:wmo:42050:1,2004-01-03T18:00:00Z,28.8425,-94.2433,2.0,331.4491139,32.38877738,-99999.0,'11111222,11111222,99999999' 
TABS,ioos:station:wmo:42050:1,2004-01-03T18:30:00Z,28.8425,-94.2433,2.0,346.6103707,30.3140314,-99999.0,'11111222,11111222,99999999' 
TABS,ioos:station:wmo:42050:1,2004-01-03T19:00:00Z,28.8425,-94.2433,2.0,341.7861211,27.8978207,-99999.0,'11111222,11111222,99999999' 
TABS,ioos:station:wmo:42050:1,2004-01-03T19:30:00Z,28.8425,-94.2433,2.0,336.031279,26.85590624,-99999.0,'11111222,11111222,99999999' 
TABS,ioos:station:wmo:42050:1,2004-01-03T20:00:00Z,28.8425,-94.2433,2.0,337.8273017,23.76764608,-99999.0,'11111222,11111222,99999999' 
TABS,ioos:station:wmo:42050:1,2004-01-03T20:30:00Z,28.8425,-94.2433,2.0,331.3231973,21.964164,-99999.0,'11111222,11111222,99999999' 
TABS,ioos:station:wmo:42050:1,2004-01-03T21:00:00Z,28.8425,-94.2433,2.0,332.8512851,18.86892154,-99999.0,'11111222,11111222,99999999' 
TABS,ioos:station:wmo:42050:1,2004-01-03T21:30:00Z,28.8425,-94.2433,2.0,328.4493604,18.57598719,-99999.0,'11111222,11111222,99999999' 
TABS,ioos:station:wmo:42050:1,2004-01-03T22:00:00Z,28.8425,-94.2433,2.0,322.6065962,18.37676794,-99999.0,'11111222,11111222,99999999' 
TABS,ioos:station:wmo:42050:1,2004-01-03T22:30:00Z,28.8425,-94.2433,2.0,316.50834,18.00210265,-99999.0,'11111222,11111222,99999999' 
TABS,ioos:station:wmo:42050:1,2004-01-03T23:00:00Z,28.8425,-94.2433,2.0,333.4492062,18.32234155,-99999.0,'11111222,11111222,99999999' 
TABS,ioos:station:wmo:42050:1,2004-01-03T23:30:00Z,28.8425,-94.2433,2.0,322.2218093,16.14402986,-99999.0,'11111222,11111222,99999999' 
TABS,ioos:station:wmo:42050:1,2004-01-04T00:00:00Z,28.8425,-94.2433,2.0,317.2614584,16.48842624,-99999.0,'11111222,11111222,99999999' 
TABS,ioos:station:wmo:42050:1,2004-01-04T00:30:00Z,28.8425,-94.2433,2.0,309.0103733,15.58487087,-99999.0,'11111222,11111222,99999999' 
TABS,ioos:station:wmo:42050:1,2004-01-04T01:00:00Z,28.8425,-94.2433,2.0,300.1228623,16.93731088,-99999.0,'11111222,11111222,99999999' 
TABS,ioos:station:wmo:42050:1,2004-01-04T01:30:00Z,28.8425,-94.2433,2.0,302.3989561,15.1360662,-99999.0,'11111222,11111222,99999999' 
TABS,ioos:station:wmo:42050:1,2004-01-04T02:00:00Z,28.8425,-94.2433,2.0,317.0923771,15.49596722,-99999.0,'11111222,11111222,99999999' 
TABS,ioos:station:wmo:42050:1,2004-01-04T02:30:00Z,28.8425,-94.2433,2.0,307.7864305,14.13380699,-99999.0,'11111222,11111222,99999999' 
TABS,ioos:station:wmo:42050:1,2004-01-04T03:00:00Z,28.8425,-94.2433,2.0,307.009581,14.80204378,-99999.0,'11111222,11111222,99999999' 
TABS,ioos:station:wmo:42050:1,2004-01-04T03:30:00Z,28.8425,-94.2433,2.0,293.9067229,12.43698114,-99999.0,'11111222,11111222,99999999' 
TABS,ioos:station:wmo:42050:1,2004-01-04T04:00:00Z,28.8425,-94.2433,2.0,300.3427322,13.91621357,-99999.0,'11111222,11111222,99999999' 
TABS,ioos:station:wmo:42050:1,2004-01-04T04:30:00Z,28.8425,-94.2433,2.0,295.2451295,13.97466279,-99999.0,'11111222,11111222,99999999' 
TABS,ioos:station:wmo:42050:1,2004-01-04T05:00:00Z,28.8425,-94.2433,2.0,282.7562484,12.59074263,-99999.0,'11111222,11111222,99999999' 
TABS,ioos:station:wmo:42050:1,2004-01-04T05:30:00Z,28.8425,-94.2433,2.0,278.7324921,15.47942182,-99999.0,'11111222,11111222,99999999' 
TABS,ioos:station:wmo:42050:1,2004-01-04T06:00:00Z,28.8425,-94.2433,2.0,268.5657384,16.38513045,-99999.0,'11111222,11111222,99999999' 
TABS,ioos:station:wmo:42050:1,2004-01-04T06:30:00Z,28.8425,-94.2433,2.0,264.7462027,15.83652108,-99999.0,'11111222,11111222,99999999' 
TABS,ioos:station:wmo:42050:1,2004-01-04T07:00:00Z,28.8425,-94.2433,2.0,268.5957229,16.73502316,-99999.0,'11111222,11111222,99999999' 
TABS,ioos:station:wmo:42050:1,2004-01-04T07:30:00Z,28.8425,-94.2433,2.0,258.5072035,16.01100247,-99999.0,'11111222,11111222,99999999' 
TABS,ioos:station:wmo:42050:1,2004-01-04T08:00:00Z,28.8425,-94.2433,2.0,258.746627,15.78343435,-99999.0,'11111222,11111222,99999999' 
TABS,ioos:station:wmo:42050:1,2004-01-04T08:30:00Z,28.8425,-94.2433,2.0,262.7071044,18.67102836,-99999.0,'11111222,11111222,99999999' 
TABS,ioos:station:wmo:42050:1,2004-01-04T09:00:00Z,28.8425,-94.2433,2.0,260.89965,18.71555503,-99999.0,'11111222,11111222,99999999' 
TABS,ioos:station:wmo:42050:1,2004-01-04T09:30:00Z,28.8425,-94.2433,2.0,264.0025235,20.10000249,-99999.0,'11111222,11111222,99999999' 
TABS,ioos:station:wmo:42050:1,2004-01-04T10:00:00Z,28.8425,-94.2433,2.0,267.9531751,20.44303793,-99999.0,'11111222,11111222,99999999' 
TABS,ioos:station:wmo:42050:1,2004-01-04T10:30:00Z,28.8425,-94.2433,2.0,265.5463867,18.54598878,-99999.0,'11111222,11111222,99999999' 
TABS,ioos:station:wmo:42050:1,2004-01-04T11:00:00Z,28.8425,-94.2433,2.0,269.7241214,16.64019231,-99999.0,'11111222,11111222,99999999' 
TABS,ioos:station:wmo:42050:1,2004-01-04T11:30:00Z,28.8425,-94.2433,2.0,265.9437608,17.81461479,-99999.0,'11111222,11111222,99999999' 
TABS,ioos:station:wmo:42050:1,2004-01-04T12:00:00Z,28.8425,-94.2433,2.0,270.4924809,18.63068705,-99999.0,'11111222,11111222,99999999' 
TABS,ioos:station:wmo:42050:1,2004-01-04T12:30:00Z,28.8425,-94.2433,2.0,271.3254739,18.59497244,-99999.0,'11111222,11111222,99999999' 
TABS,ioos:station:wmo:42050:1,2004-01-04T13:00:00Z,28.8425,-94.2433,2.0,284.0435272,20.15228523,-99999.0,'11111222,11111222,99999999' 
TABS,ioos:station:wmo:42050:1,2004-01-04T13:30:00Z,28.8425,-94.2433,2.0,288.1947643,21.84204432,-99999.0,'11111222,11111222,99999999' 
TABS,ioos:station:wmo:42050:1,2004-01-04T14:00:00Z,28.8425,-94.2433,2.0,291.7864145,20.77373823,-99999.0,'11111222,11111222,99999999' 
TABS,ioos:station:wmo:42050:1,2004-01-04T14:30:00Z,28.8425,-94.2433,2.0,302.1349479,21.15019149,-99999.0,'11111222,11111222,99999999' 
TABS,ioos:station:wmo:42050:1,2004-01-04T15:00:00Z,28.8425,-94.2433,2.0,300.3395645,20.92578553,-99999.0,'11111222,11111222,99999999' 
TABS,ioos:station:wmo:42050:1,2004-01-04T15:30:00Z,28.8425,-94.2433,2.0,307.6054498,21.04173234,-99999.0,'11111222,11111222,99999999' 
TABS,ioos:station:wmo:42050:1,2004-01-04T16:00:00Z,28.8425,-94.2433,2.0,311.3606465,21.94335663,-99999.0,'11111222,11111222,99999999' 